EZY1111 EGKK-EGPD

Flight info

Callsign EZY1111
Flight time 1h 5m
Altitude 38000
Route LAM1Z LAM L10 BPK UN601 LESTA UY250 KEFTE/N0433F370 DCT MADAD/N0360F240 P18 EPCAN DCT
Aircraft A320/M-SDE3FGHIRWY/LB1

Departure

Time 2026-05-08 16:36
Airport London Gatwick Airport (EGKK)

Arrival

Time 2026-05-08 17:42
Airport Aberdeen International Airport (EGPD)
Time Latitude Longitude Altitude Speed Heading
2026-05-08 15:46 51.16041 -0.16960 204 ft 0 kts 333°
2026-05-08 16:20 51.16027 -0.16948 213 ft 4 kts 333°
2026-05-08 16:21 51.16003 -0.16929 211 ft 2 kts 333°
2026-05-08 16:21 51.15985 -0.16912 216 ft 4 kts 309°
2026-05-08 16:21 51.15977 -0.16879 215 ft 2 kts 270°
2026-05-08 16:21 51.15977 -0.16850 212 ft 0 kts 270°
2026-05-08 16:25 51.15974 -0.16891 204 ft 11 kts 259°
2026-05-08 16:25 51.15931 -0.17011 208 ft 13 kts 224°
2026-05-08 16:26 51.15912 -0.17036 207 ft 0 kts 215°
2026-05-08 16:27 51.15911 -0.17037 207 ft 1 kts 215°
2026-05-08 16:27 51.15850 -0.17076 204 ft 16 kts 195°
2026-05-08 16:27 51.15790 -0.17295 212 ft 18 kts 258°
2026-05-08 16:28 51.15772 -0.17424 208 ft 18 kts 257°
2026-05-08 16:28 51.15743 -0.17633 207 ft 20 kts 257°
2026-05-08 16:28 51.15701 -0.17939 211 ft 23 kts 257°
2026-05-08 16:28 51.15666 -0.18192 207 ft 24 kts 258°
2026-05-08 16:29 51.15641 -0.18374 204 ft 25 kts 258°
2026-05-08 16:29 51.15603 -0.18649 211 ft 21 kts 257°
2026-05-08 16:29 51.15542 -0.18816 211 ft 18 kts 180°
2026-05-08 16:29 51.15411 -0.18777 210 ft 20 kts 167°
2026-05-08 16:30 51.15268 -0.18727 211 ft 22 kts 168°
2026-05-08 16:30 51.15157 -0.18703 203 ft 15 kts 195°
2026-05-08 16:30 51.15112 -0.18864 213 ft 20 kts 258°
2026-05-08 16:30 51.15081 -0.19085 214 ft 21 kts 257°
2026-05-08 16:31 51.15049 -0.19321 206 ft 23 kts 258°
2026-05-08 16:31 51.15014 -0.19577 217 ft 24 kts 258°
2026-05-08 16:31 51.14976 -0.19851 209 ft 26 kts 257°
2026-05-08 16:31 51.14935 -0.20146 206 ft 28 kts 257°
2026-05-08 16:32 51.14891 -0.20458 206 ft 28 kts 257°
2026-05-08 16:32 51.14851 -0.20758 207 ft 25 kts 258°
2026-05-08 16:32 51.14819 -0.20990 207 ft 14 kts 257°
2026-05-08 16:32 51.14806 -0.21083 207 ft 3 kts 257°
2026-05-08 16:33 51.14800 -0.21117 204 ft 6 kts 253°
2026-05-08 16:33 51.14766 -0.21305 211 ft 19 kts 257°
2026-05-08 16:33 51.14697 -0.21389 206 ft 14 kts 164°
2026-05-08 16:33 51.14619 -0.21327 206 ft 7 kts 165°
2026-05-08 16:34 51.14613 -0.21325 205 ft 0 kts 167°
2026-05-08 16:34 51.14609 -0.21324 206 ft 4 kts 166°
2026-05-08 16:34 51.14533 -0.21258 206 ft 21 kts 130°
2026-05-08 16:34 51.14540 -0.21030 214 ft 22 kts 77°
2026-05-08 16:35 51.14580 -0.20738 205 ft 22 kts 78°
2026-05-08 16:35 51.14592 -0.20653 206 ft 0 kts 77°
2026-05-08 16:35 51.14592 -0.20652 205 ft 0 kts 77°
2026-05-08 16:36 51.14625 -0.20417 209 ft 58 kts 78°
2026-05-08 16:36 51.14759 -0.19430 210 ft 122 kts 77°
2026-05-08 16:36 51.14978 -0.17858 319 ft 160 kts 79°
2026-05-08 16:36 51.15230 -0.16073 957 ft 166 kts 80°
2026-05-08 16:37 51.15477 -0.14269 1708 ft 171 kts 79°
2026-05-08 16:37 51.15740 -0.12309 2040 ft 192 kts 80°
2026-05-08 16:37 51.16037 -0.10097 2358 ft 217 kts 80°
2026-05-08 16:37 51.16393 -0.07618 2785 ft 243 kts 73°
2026-05-08 16:38 51.17280 -0.05221 3515 ft 259 kts 54°
2026-05-08 16:38 51.18396 -0.02936 4438 ft 265 kts 55°
2026-05-08 16:38 51.19539 -0.00589 5366 ft 270 kts 52°
2026-05-08 16:38 51.20696 0.01791 6367 ft 274 kts 52°
2026-05-08 16:39 51.21874 0.04220 7224 ft 280 kts 52°
2026-05-08 16:39 51.23076 0.06708 8060 ft 286 kts 53°
2026-05-08 16:39 51.24295 0.09256 8948 ft 291 kts 56°
2026-05-08 16:39 51.25166 0.12181 9774 ft 295 kts 77°
2026-05-08 16:40 51.25564 0.15407 10605 ft 298 kts 81°
2026-05-08 16:40 51.25939 0.18635 11417 ft 301 kts 81°
2026-05-08 16:40 51.26316 0.21863 12205 ft 305 kts 81°
2026-05-08 16:40 51.26706 0.25206 12998 ft 309 kts 80°
2026-05-08 16:41 51.27164 0.28574 13823 ft 313 kts 72°
2026-05-08 16:41 51.28229 0.31616 14488 ft 319 kts 50°
2026-05-08 16:41 51.29949 0.33862 15191 ft 322 kts 27°
2026-05-08 16:42 51.34312 0.34808 16558 ft 326 kts 344°
2026-05-08 16:42 51.36451 0.33552 17229 ft 329 kts 336°
2026-05-08 16:42 51.38575 0.32163 17917 ft 332 kts 336°
2026-05-08 16:42 51.40724 0.30755 18542 ft 336 kts 336°
2026-05-08 16:43 51.42899 0.29335 19137 ft 338 kts 336°
2026-05-08 16:43 51.45088 0.27914 19766 ft 340 kts 336°
2026-05-08 16:43 51.47276 0.26494 20407 ft 340 kts 336°
2026-05-08 16:43 51.49477 0.25063 21048 ft 341 kts 336°
2026-05-08 16:44 51.51684 0.23628 21690 ft 342 kts 336°
2026-05-08 16:44 51.53892 0.22187 22303 ft 344 kts 336°
2026-05-08 16:44 51.56112 0.20732 22925 ft 345 kts 336°
2026-05-08 16:44 51.58347 0.19268 23547 ft 347 kts 336°
2026-05-08 16:45 51.60585 0.17800 24062 ft 349 kts 336°
2026-05-08 16:45 51.62763 0.16157 24547 ft 349 kts 327°
2026-05-08 16:45 51.64709 0.13843 25014 ft 349 kts 316°
2026-05-08 16:45 51.66349 0.10882 25154 ft 360 kts 303°
2026-05-08 16:46 51.67733 0.07436 25277 ft 372 kts 302°
2026-05-08 16:46 51.69154 0.03863 25408 ft 383 kts 302°
2026-05-08 16:46 51.70611 0.00216 25690 ft 389 kts 302°
2026-05-08 16:46 51.72085 -0.03469 26080 ft 393 kts 302°
2026-05-08 16:47 51.73611 -0.07153 26479 ft 396 kts 306°
2026-05-08 16:47 51.75462 -0.10465 26902 ft 400 kts 315°
2026-05-08 16:47 51.77640 -0.13198 27315 ft 404 kts 325°
2026-05-08 16:47 51.80025 -0.15484 27716 ft 406 kts 327°
2026-05-08 16:48 51.82472 -0.17802 28115 ft 408 kts 327°
2026-05-08 16:48 51.84927 -0.20138 28519 ft 410 kts 327°
2026-05-08 16:48 51.87386 -0.22482 28918 ft 412 kts 326°
2026-05-08 16:48 51.89827 -0.24811 29304 ft 413 kts 326°
2026-05-08 16:49 51.92340 -0.27213 29698 ft 415 kts 326°
2026-05-08 16:49 51.94835 -0.29600 30082 ft 417 kts 326°
2026-05-08 16:49 51.97306 -0.31972 30407 ft 418 kts 326°
2026-05-08 16:49 51.99810 -0.34382 30715 ft 420 kts 326°
2026-05-08 16:50 52.02326 -0.36806 31030 ft 421 kts 326°
2026-05-08 16:50 52.04848 -0.39236 31343 ft 422 kts 326°
2026-05-08 16:50 52.07376 -0.41669 31645 ft 423 kts 326°
2026-05-08 16:50 52.09905 -0.44105 32065 ft 421 kts 326°
2026-05-08 16:51 52.12414 -0.46528 32511 ft 419 kts 326°
2026-05-08 16:51 52.14915 -0.48949 32959 ft 416 kts 326°
2026-05-08 16:51 52.17395 -0.51358 33404 ft 414 kts 326°
2026-05-08 16:51 52.19860 -0.53755 33842 ft 412 kts 326°
2026-05-08 16:52 52.22319 -0.56148 34247 ft 410 kts 326°
2026-05-08 16:52 52.24778 -0.58542 34559 ft 410 kts 326°
2026-05-08 16:52 52.27196 -0.60898 34840 ft 410 kts 326°
2026-05-08 16:52 52.29648 -0.63293 35125 ft 410 kts 325°
2026-05-08 16:53 52.34565 -0.68100 35625 ft 412 kts 326°
2026-05-08 16:53 52.37030 -0.70510 35873 ft 412 kts 326°
2026-05-08 16:53 52.39466 -0.72892 36113 ft 413 kts 326°
2026-05-08 16:54 52.41933 -0.75310 36350 ft 413 kts 326°
2026-05-08 16:54 52.44400 -0.77735 36577 ft 414 kts 326°
2026-05-08 16:54 52.46868 -0.80169 36801 ft 414 kts 325°
2026-05-08 16:54 52.49344 -0.82617 37019 ft 414 kts 325°
2026-05-08 16:55 52.51819 -0.85067 37238 ft 415 kts 326°
2026-05-08 16:55 52.54293 -0.87515 37456 ft 415 kts 325°
2026-05-08 16:55 52.56738 -0.89938 37667 ft 416 kts 326°
2026-05-08 16:55 52.59223 -0.92403 37881 ft 416 kts 326°
2026-05-08 16:56 52.61709 -0.94871 38042 ft 417 kts 326°
2026-05-08 16:56 52.64198 -0.97339 38067 ft 417 kts 326°
2026-05-08 16:56 52.69168 -1.02285 38059 ft 417 kts 325°
2026-05-08 16:57 52.74283 -1.06820 38083 ft 422 kts 336°
2026-05-08 16:57 52.80055 -1.09023 38079 ft 428 kts 345°
2026-05-08 16:58 52.85883 -1.10784 38085 ft 428 kts 345°
2026-05-08 16:58 52.91751 -1.12567 38088 ft 428 kts 345°
2026-05-08 16:59 52.97629 -1.14359 38091 ft 428 kts 345°
2026-05-08 16:59 53.03498 -1.16158 38111 ft 429 kts 345°
2026-05-08 17:00 53.09361 -1.17959 38111 ft 429 kts 345°
2026-05-08 17:00 53.15240 -1.19761 38118 ft 429 kts 345°
2026-05-08 17:01 53.21084 -1.21560 38111 ft 429 kts 345°
2026-05-08 17:01 53.26965 -1.23381 38130 ft 429 kts 345°
2026-05-08 17:02 53.32846 -1.25213 38126 ft 429 kts 345°
2026-05-08 17:02 53.38692 -1.27044 38108 ft 429 kts 345°
2026-05-08 17:03 53.44638 -1.28372 38115 ft 433 kts 351°
2026-05-08 17:03 53.50655 -1.29090 38123 ft 433 kts 351°
2026-05-08 17:04 53.56652 -1.30052 38116 ft 429 kts 343°
2026-05-08 17:04 53.62108 -1.33515 38111 ft 418 kts 325°
2026-05-08 17:05 53.67083 -1.38574 38098 ft 418 kts 325°
2026-05-08 17:05 53.72077 -1.43629 38094 ft 418 kts 325°
2026-05-08 17:06 53.77070 -1.48686 38096 ft 418 kts 325°
2026-05-08 17:06 53.82054 -1.53775 38092 ft 418 kts 324°
2026-05-08 17:07 53.87008 -1.58858 38098 ft 418 kts 324°
2026-05-08 17:07 53.91985 -1.63972 38097 ft 418 kts 324°
2026-05-08 17:08 53.96967 -1.69107 38097 ft 418 kts 324°
2026-05-08 17:08 54.02265 -1.73303 38114 ft 427 kts 340°
2026-05-08 17:09 54.05217 -1.74199 38114 ft 434 kts 351°
2026-05-08 17:09 54.08207 -1.74286 38114 ft 437 kts 355°
2026-05-08 17:09 54.14296 -1.74231 38122 ft 437 kts 355°
2026-05-08 17:10 54.20393 -1.74212 38121 ft 437 kts 355°
2026-05-08 17:10 54.26491 -1.74195 38137 ft 438 kts 355°
2026-05-08 17:11 54.32594 -1.74177 38121 ft 439 kts 355°
2026-05-08 17:11 54.38676 -1.74148 38119 ft 439 kts 355°
2026-05-08 17:12 54.44801 -1.74115 38122 ft 439 kts 355°
2026-05-08 17:12 54.50927 -1.74081 38131 ft 440 kts 355°
2026-05-08 17:13 54.57018 -1.74053 38123 ft 440 kts 355°
2026-05-08 17:13 54.63186 -1.74026 38121 ft 441 kts 355°
2026-05-08 17:14 54.69286 -1.74006 38120 ft 441 kts 355°
2026-05-08 17:14 54.75427 -1.73977 38143 ft 442 kts 355°
2026-05-08 17:15 54.80542 -1.73957 38126 ft 442 kts 355°
2026-05-08 17:15 54.86700 -1.73922 38112 ft 443 kts 355°
2026-05-08 17:16 54.92863 -1.73877 38111 ft 443 kts 355°
2026-05-08 17:16 54.99024 -1.73843 38111 ft 443 kts 355°
2026-05-08 17:17 55.05200 -1.73837 38113 ft 444 kts 355°
2026-05-08 17:17 55.11380 -1.73823 38107 ft 444 kts 355°
2026-05-08 17:18 55.17538 -1.73784 38104 ft 445 kts 355°
2026-05-08 17:18 55.23732 -1.73735 38108 ft 445 kts 355°
2026-05-08 17:19 55.26833 -1.73719 37989 ft 446 kts 355°
2026-05-08 17:19 55.29969 -1.73708 36807 ft 458 kts 354°
2026-05-08 17:19 55.33154 -1.73697 36343 ft 452 kts 354°
2026-05-08 17:19 55.36279 -1.73676 35926 ft 446 kts 353°
2026-05-08 17:20 55.39369 -1.73656 35386 ft 443 kts 353°
2026-05-08 17:20 55.42440 -1.73641 34855 ft 440 kts 352°
2026-05-08 17:20 55.45491 -1.73622 34327 ft 437 kts 352°
2026-05-08 17:20 55.48532 -1.73601 33751 ft 435 kts 352°
2026-05-08 17:21 55.51551 -1.73580 33249 ft 432 kts 352°
2026-05-08 17:21 55.54548 -1.73565 32703 ft 430 kts 352°
2026-05-08 17:21 55.57492 -1.73557 32209 ft 427 kts 352°
2026-05-08 17:21 55.60488 -1.73550 31693 ft 423 kts 352°
2026-05-08 17:22 55.63385 -1.73540 31206 ft 420 kts 352°
2026-05-08 17:22 55.66297 -1.73525 30713 ft 417 kts 353°
2026-05-08 17:22 55.69190 -1.73509 30236 ft 414 kts 353°
2026-05-08 17:22 55.72060 -1.73496 29714 ft 411 kts 353°
2026-05-08 17:23 55.74909 -1.73481 29259 ft 405 kts 353°
2026-05-08 17:23 55.77710 -1.73462 28849 ft 401 kts 353°
2026-05-08 17:23 55.80489 -1.73442 28373 ft 397 kts 353°
2026-05-08 17:23 55.83237 -1.73425 27932 ft 393 kts 353°
2026-05-08 17:24 55.85959 -1.73414 27495 ft 389 kts 353°
2026-05-08 17:24 55.88652 -1.73404 27041 ft 386 kts 353°
2026-05-08 17:24 55.91314 -1.73516 26602 ft 378 kts 346°
2026-05-08 17:24 55.93873 -1.74310 26143 ft 371 kts 341°
2026-05-08 17:25 55.96392 -1.75240 25694 ft 369 kts 341°
2026-05-08 17:25 55.98897 -1.76170 25229 ft 367 kts 341°
2026-05-08 17:25 56.01367 -1.77089 24761 ft 367 kts 341°
2026-05-08 17:25 56.03871 -1.78019 24281 ft 367 kts 341°
2026-05-08 17:26 56.06366 -1.78946 23799 ft 367 kts 342°
2026-05-08 17:26 56.08867 -1.79878 23256 ft 367 kts 342°
2026-05-08 17:26 56.11361 -1.80808 22770 ft 365 kts 342°
2026-05-08 17:26 56.13836 -1.81724 22300 ft 363 kts 342°
2026-05-08 17:27 56.16306 -1.82638 21832 ft 361 kts 342°
2026-05-08 17:27 56.18764 -1.83554 21358 ft 360 kts 342°
2026-05-08 17:27 56.21209 -1.84466 20894 ft 359 kts 342°
2026-05-08 17:27 56.23651 -1.85378 20432 ft 358 kts 343°
2026-05-08 17:28 56.26088 -1.86289 19967 ft 357 kts 343°
2026-05-08 17:28 56.28525 -1.87203 19504 ft 356 kts 343°
2026-05-08 17:28 56.30956 -1.88114 19043 ft 356 kts 343°
2026-05-08 17:28 56.33386 -1.89024 18579 ft 356 kts 343°
2026-05-08 17:29 56.35810 -1.89932 18091 ft 356 kts 343°
2026-05-08 17:29 56.38231 -1.90841 17624 ft 354 kts 343°
2026-05-08 17:29 56.40604 -1.91734 17181 ft 352 kts 343°
2026-05-08 17:29 56.42995 -1.92632 16739 ft 350 kts 343°
2026-05-08 17:30 56.45367 -1.93528 16303 ft 348 kts 343°
2026-05-08 17:30 56.47733 -1.94430 15873 ft 347 kts 343°
2026-05-08 17:30 56.50094 -1.95330 15441 ft 345 kts 343°
2026-05-08 17:30 56.52429 -1.96219 15058 ft 343 kts 343°
2026-05-08 17:31 56.54753 -1.97100 14718 ft 339 kts 344°
2026-05-08 17:31 56.57067 -1.97980 14316 ft 338 kts 343°
2026-05-08 17:31 56.59359 -1.98852 13966 ft 335 kts 343°
2026-05-08 17:31 56.61638 -1.99724 13516 ft 334 kts 344°
2026-05-08 17:32 56.63904 -2.00592 13087 ft 332 kts 344°
2026-05-08 17:32 56.66168 -2.01459 12653 ft 330 kts 344°
2026-05-08 17:32 56.68409 -2.02317 12227 ft 329 kts 344°
2026-05-08 17:32 56.70639 -2.03169 11813 ft 327 kts 344°
2026-05-08 17:33 56.72850 -2.04011 11197 ft 322 kts 344°
2026-05-08 17:33 56.75012 -2.04833 10705 ft 311 kts 344°
2026-05-08 17:33 56.77070 -2.05613 10285 ft 300 kts 344°
2026-05-08 17:33 56.79087 -2.06384 9862 ft 294 kts 344°
2026-05-08 17:34 56.81099 -2.07166 9347 ft 297 kts 344°
2026-05-08 17:34 56.83110 -2.07952 8884 ft 292 kts 343°
2026-05-08 17:34 56.85063 -2.08710 8458 ft 283 kts 344°
2026-05-08 17:34 56.86985 -2.09461 8022 ft 283 kts 344°
2026-05-08 17:35 56.88908 -2.10214 7584 ft 281 kts 344°
2026-05-08 17:35 56.90797 -2.10858 7149 ft 276 kts 352°
2026-05-08 17:35 56.92728 -2.10659 6703 ft 281 kts
2026-05-08 17:35 56.94545 -2.09441 6232 ft 276 kts 26°
2026-05-08 17:36 56.96194 -2.07610 5779 ft 277 kts 28°
2026-05-08 17:36 56.97830 -2.05784 5495 ft 270 kts 28°
2026-05-08 17:36 56.99395 -2.04041 5355 ft 258 kts 28°
2026-05-08 17:36 57.00910 -2.02355 5073 ft 252 kts 28°
2026-05-08 17:37 57.02422 -2.00750 4597 ft 253 kts 20°
2026-05-08 17:37 57.04132 -2.00152 3890 ft 249 kts 352°
2026-05-08 17:37 57.05755 -2.00984 3251 ft 240 kts 324°
2026-05-08 17:37 57.06819 -2.03084 3116 ft 213 kts 304°
2026-05-08 17:38 57.07701 -2.05171 2925 ft 201 kts 306°
2026-05-08 17:38 57.08544 -2.07131 2739 ft 188 kts 305°
2026-05-08 17:38 57.09324 -2.08941 2530 ft 173 kts 306°
2026-05-08 17:38 57.10034 -2.10592 2329 ft 156 kts 306°
2026-05-08 17:39 57.10745 -2.12009 2131 ft 146 kts 316°
2026-05-08 17:39 57.11568 -2.13045 1940 ft 141 kts 326°
2026-05-08 17:39 57.12409 -2.13858 1774 ft 136 kts 330°
2026-05-08 17:39 57.13264 -2.14581 1585 ft 135 kts 332°
2026-05-08 17:40 57.14124 -2.15261 1408 ft 136 kts 332°
2026-05-08 17:40 57.15002 -2.15931 1226 ft 137 kts 333°
2026-05-08 17:40 57.15880 -2.16588 1029 ft 136 kts 335°
2026-05-08 17:40 57.16754 -2.17238 838 ft 134 kts 336°
2026-05-08 17:41 57.17604 -2.17896 636 ft 129 kts 338°
2026-05-08 17:41 57.18451 -2.18489 423 ft 131 kts 338°
2026-05-08 17:41 57.19278 -2.19121 272 ft 127 kts 340°
2026-05-08 17:41 57.20095 -2.19693 213 ft 119 kts 335°
2026-05-08 17:42 57.20637 -2.20111 206 ft 55 kts 339°
2026-05-08 17:42 57.20873 -2.20279 205 ft 22 kts 336°
2026-05-08 17:42 57.20927 -2.20399 205 ft 9 kts 251°
2026-05-08 17:42 57.20895 -2.20457 209 ft 4 kts 217°
2026-05-08 17:43 57.20868 -2.20492 214 ft 7 kts 213°
2026-05-08 17:43 57.20829 -2.20527 210 ft 6 kts 199°
2026-05-08 17:43 57.20759 -2.20521 206 ft 14 kts 160°
2026-05-08 17:43 57.20676 -2.20449 212 ft 13 kts 160°
2026-05-08 17:44 57.20593 -2.20399 207 ft 12 kts 160°
2026-05-08 17:44 57.20521 -2.20350 202 ft 11 kts 165°
2026-05-08 17:44 57.20451 -2.20382 208 ft 11 kts 191°
2026-05-08 17:44 57.20381 -2.20354 209 ft 10 kts 159°
2026-05-08 17:45 57.20318 -2.20308 212 ft 9 kts 159°
2026-05-08 17:45 57.20259 -2.20266 206 ft 9 kts 159°
2026-05-08 17:45 57.20214 -2.20234 206 ft 6 kts 159°
2026-05-08 17:45 57.20191 -2.20220 209 ft 1 kts 175°
2026-05-08 17:46 57.20184 -2.20227 202 ft 2 kts 208°
2026-05-08 17:46 57.20179 -2.20249 213 ft 2 kts 250°
2026-05-08 17:46 57.20174 -2.20281 202 ft 2 kts 256°
2026-05-08 17:46 57.20168 -2.20306 211 ft 1 kts 246°
2026-05-08 17:47 57.20167 -2.20311 211 ft 0 kts 246°